Location: Lake Arresoe
(56.0000°N, 12.5000°E)
Time: 12:32:33
(UTC+02:00)

Resurs 1-4 Rocket - Visible Passes

Search period start: 27 June 2017 00:00
Search period end: 07 July 2017 00:00
Orbit: 801 x 813 km, 98.5° (Epoch: 26 June)

Date Brightness Start Highest point End Pass type
(mag) Time Alt. Az. Time Alt. Az. Time Alt. Az.
27 Jun 4.6 01:51:54 10° ENE 01:53:54 12° E 01:55:54 10° ESE visible
28 Jun 3.2 03:05:11 10° NNE 03:10:12 40° E 03:15:11 10° SSE visible
29 Jun 3.8 02:40:53 10° NNE 02:45:25 27° E 02:49:54 10° SSE visible
30 Jun 4.3 02:16:49 10° NE 02:20:31 19° E 02:24:12 10° SE visible
01 Jul 4.5 01:53:21 10° ENE 01:55:32 12° E 01:57:42 10° ESE visible
02 Jul 3.2 03:06:46 10° NNE 03:11:49 41° E 03:16:49 10° SSE visible
03 Jul 3.7 02:42:27 10° NNE 02:47:02 28° E 02:51:33 10° SSE visible
04 Jul 4.2 02:18:22 10° NE 02:22:09 19° E 02:25:53 10° SE visible
05 Jul 4.5 01:54:49 10° NE 01:57:09 13° E 01:59:29 10° ESE visible
06 Jul 3.1 03:08:22 10° NNE 03:13:26 42° E 03:18:26 10° SSE visible
